(2020 WH3) |
Classification: Amor [NEO] SPK-ID: 54092916 |
[ hide orbit diagram ]
For accurate long-term ephemerides, please instead use our Horizons system.This orbit viewer was implemented using two-body methods, and hence should not be used for determining accurate long-term trajectories (over several years or decades) or planetary encounter circumstances.
Orbital Elements at Epoch 2459176.5 (2020-Nov-23.0) TDB
Reference: JPL 2 (heliocentric ecliptic J2000)
Element | Value | Uncertainty (1-sigma) | Units |
e | .4231188869402643 | 0.0011 | |
a | 1.764583490373853 | 0.003498 | au |
q | 1.017954888013702 | 8.997e-05 | au |
i | 6.584809795518654 | 0.013856 | deg |
node | 246.5157880316125 | 0.0038505 | deg |
peri | 186.3725802919321 | 0.04468 | deg |
M | 355.65122130567 | 0.021221 | deg |
tp | 2459186.842524321575 (2020-Dec-03.34252432) | 0.035981 | TDB |
period | 856.1734264890299 2.34 | 2.5459 0.00697 | d yr |
n | .4204755588786224 | 0.0012503 | deg/d |
Q | 2.511212092734004 | 0.0049781 | au |
|
| | Orbit Determination Parameters
Additional Information
|
[ show covariance matrix ]
Physical Parameter Table
Parameter |
Symbol |
Value |
Units |
Sigma |
Reference |
Notes |
absolute magnitude |
H |
26.6 |
|
.26728 |
E2021-CC3 |
autocmod 2.8 |
|
[ show close-approach data ]
|